Zurück zum Katalog

SL-12 DEB

AktivHEO
NORAD 25798·DEBRIS·🇷🇺 Russia

Gestartet Jan 10, 1989 von Baikonur Cosmodrome

Loading…

Nächste Überflüge (nächste 24 Stunden)

TLE

AktuellSource: Space-Track

Epoche: Sep 13, 2026, 04:26 UTC

1 25798U 89001K   26256.18477293  .00009053  00000-0  25034-1 0  9993
2 25798  65.1606 333.8891 4475771 217.3992 236.6286  6.11152383 16998

Verfolge SL-12 DEB in Echtzeit mit AllMySat

Download on the App Store